Regional Weather Roundup
Issued by NWS

Home | Current Version | Previous Version | Text Only | Print | Product List | Glossary On
Versions: 1 2 3 4 5 6 7 8 9 10 11 12 13 14 15 16 17 18 19 20 21 22 23 24 25 26 27 28 29 30 31 32 33 34 35 36 37 38 39 40 41 42 43 44 45 46 47 48 49 50
000
ASUS43 KDTX 300010
RWRMI
MICHIGAN HOURLY REGIONAL WEATHER ROUNDUP
NATIONAL WEATHER SERVICE DETROIT/PONTIAC MI
800 PM EDT TUE JUL 29 2014

NOTE: "FAIR" INDICATES FEW OR NO CLOUDS BELOW 12,000 FEET WITH NO
SIGNIFICANT WEATHER AND/OR OBSTRUCTION TO VISIBILITY.

MIZ047>049-052>055-059>063-066>070-074>076-081>083-300100-
SOUTHEAST LOWER MICHIGAN

CITY           SKY/WX    TMP DP  RH WIND       PRES   REMARKS
ADRIAN         CLOUDY    69  56  62 SW5       29.98S
6HR MIN TEMP:  69; 6HR MAX TEMP:  73;

ALMA           MOSUNNY   66  61  84 CALM      29.96R
6HR MIN TEMP:  60; 6HR MAX TEMP:  73;

ANN ARBOR      TSTM      63  58  83 W8        29.97F
BAD AXE        PTCLDY    67  58  72 SW7       29.93R
6HR MIN TEMP:  67; 6HR MAX TEMP:  72;

DETROIT CITY   MOCLDY    67  58  72 S3        29.95F
6HR MIN TEMP:  65; 6HR MAX TEMP:  75; 6HR PCP:  0.34;

DETROIT        MOCLDY    67  59  75 W7        29.97S
6HR MIN TEMP:  67; 6HR MAX TEMP:  74; 6HR PCP: TRACE;

FLINT          CLOUDY    66  59  78 CALM      29.95F
6HR MIN TEMP:  65; 6HR MAX TEMP:  73; 6HR PCP:  0.31;

GROSSE ILE     CLOUDY    70  61  73 W7        29.95S
HILLSDALE      PTCLDY    68  60  74 SW3       29.99S
6HR MIN TEMP:  68; 6HR MAX TEMP:  71;

HOWELL         MOCLDY    64  58  83 S6        29.97S
6HR MIN TEMP:  63; 6HR MAX TEMP:  71;


CITY           SKY/WX    TMP DP  RH WIND       PRES   REMARKS
JACKSON        PTCLDY    67  58  72 W5        29.98R
6HR MIN TEMP:  67; 6HR MAX TEMP:  73;

LAMBERTVILLE   PTCLDY    72  54  53 SW7       29.98S
LANSING        PTCLDY    69  56  62 W10       29.96S
6HR MIN TEMP:  66; 6HR MAX TEMP:  75; 6HR PCP: TRACE;

LAPEER         NOT AVBL
MASON          CLOUDY    69  56  62 W6        29.96S
MONROE         LGT RAIN  70  57  64 W3        29.95F
MT. CLEMENS    CLOUDY    67  53  62 W6        29.93F
6HR MIN TEMP:  67; 6HR MAX TEMP:  73;

PONTIAC        CLOUDY    63  58  83 S3        29.94F
6HR MIN TEMP:  59; 6HR MAX TEMP:  71;

PORT HOPE        N/A     65  60  84 SE8       29.90S
6HR MIN TEMP:  65; 6HR MAX TEMP:  70;

PORT HURON     CLOUDY    66  59  77 CALM      29.95R
TRI CITIES     CLOUDY    63  59  87 SW7       29.95R
6HR MIN TEMP:  63; 6HR MAX TEMP:  75; 6HR PCP:  0.12;

YPSILANTI      MOCLDY    69  59  70 W6        29.97S
6HR MIN TEMP:  68; 6HR MAX TEMP:  77; 6HR PCP:  0.01;

$$
MIZ043>046-050>051-056>058-064>065-071>073-077>080-300100-
SOUTHWEST LOWER MICHIGAN

CITY           SKY/WX    TMP DP  RH WIND       PRES   REMARKS
BATTLE CREEK   SUNNY     69  55  60 W8        29.99S
6HR MIN TEMP:  65; 6HR MAX TEMP:  75; 6HR PCP:  0.08;

BENTON HARBOR  SUNNY     67  57  70 CALM      29.99S
6HR MIN TEMP:  67; 6HR MAX TEMP:  70;

BIG RAPIDS     MOSUNNY   68  54  60 NW7       29.96R
6HR MIN TEMP:  68; 6HR MAX TEMP:  73;

COLDWATER      CLEAR     70  57  64 W6        29.99R
6HR MIN TEMP:  65; 6HR MAX TEMP:  72;

HOLLAND        SUNNY     67  58  72 W6        29.99F
6HR MIN TEMP:  67; 6HR MAX TEMP:  72;

GRAND RAPIDS   MOSUNNY   71  54  54 W9        29.97S
6HR MIN TEMP:  71; 6HR MAX TEMP:  77;

KALAMAZOO      SUNNY     69  55  60 W6        29.99S
6HR MIN TEMP:  69; 6HR MAX TEMP:  75;

MARSHALL       CLEAR     67  56  66 W8        29.98R
MUSKEGON       PTSUNNY   63  54  72 SW5       29.98S
6HR MIN TEMP:  63; 6HR MAX TEMP:  71;

$$
MIZ016>042-300100-
NORTHERN LOWER MICHIGAN

CITY           SKY/WX    TMP DP  RH WIND       PRES   REMARKS
ALPENA         MOCLDY    65  57  75 E7        29.92R
6HR MIN TEMP:  63; 6HR MAX TEMP:  73; 6HR PCP:  0.04;

BEAVER ISLAND  SUNNY     64  56  75 NW5       29.95S
6HR MIN TEMP:  64; 6HR MAX TEMP:  69;

BELLAIRE       SUNNY     65  56  72 W5        29.95S
6HR MIN TEMP:  65; 6HR MAX TEMP:  69;

CADILLAC       MOSUNNY   64  56  75 NW6       29.97R
CHARLEVOIX     SUNNY     64  58  82 W7        29.98S
6HR MIN TEMP:  64; 6HR MAX TEMP:  68;

FRANKFORT      PTCLDY    64  53  67 W5        29.97R
GAYLORD        SUNNY     63  52  67 NW6       29.95S
6HR MIN TEMP:  63; 6HR MAX TEMP:  68;

GRAYLING       SUNNY     66  54  63 NW7       29.96S
6HR MIN TEMP:  66; 6HR MAX TEMP:  71;

HARBOR SPRINGS MOSUNNY   64  58  80 W5        29.94S
HOUGHTON LAKE  MOSUNNY   66  52  60 W8        29.95S
6HR MIN TEMP:  66; 6HR MAX TEMP:  73;

MANISTEE       MOSUNNY   63  54  72 W5        29.98S
OSCODA         CLEAR     64  59  84 NE7       29.91R
PELLSTON       SUNNY     66  55  67 W12       29.94R
6HR MIN TEMP:  66; 6HR MAX TEMP:  71;

TRAVERSE CITY  MOSUNNY   67  54  63 N6        29.94S
6HR MIN TEMP:  67; 6HR MAX TEMP:  71;

$$
MIZ007>008-015-300100-
EASTERN UPPER MICHIGAN

CITY           SKY/WX    TMP DP  RH WIND       PRES   REMARKS
KINROSS        SUNNY     55  54  94 NW7       29.94S
6HR MIN TEMP:  55; 6HR MAX TEMP:  70;

MACKINAC ISLAN MOSUNNY   64  55  72 N7        29.92R
6HR MIN TEMP:  64; 6HR MAX TEMP:  68;

NEWBERRY       SUNNY     61  51  71 NW6       29.95R
6HR MIN TEMP:  61; 6HR MAX TEMP:  68;

S. S. MARIE    MOSUNNY   56  50  80 W8        29.93S
6HR MIN TEMP:  56; 6HR MAX TEMP:  67;

$$
MIZ004>006-011>014-085-300100-
CENTRAL UPPER MICHIGAN

CITY           SKY/WX    TMP DP  RH WIND       PRES   REMARKS
MANISTIQUE     SUNNY     64  54  68 NW6       29.95S
6HR MIN TEMP:  64; 6HR MAX TEMP:  72;

ESCANABA       PTSUNNY   64  57  77 CALM      29.96S
6HR MIN TEMP:  63; 6HR MAX TEMP:  70;

MENOMINEE      PTSUNNY   64  59  82 SW3       29.93F
6HR MIN TEMP:  63; 6HR MAX TEMP:  73; 6HR PCP:  0.15;

SAWYER-GWINN   SUNNY     61  55  82 NE9       29.97S
$$
MIZ001>003-009>011-084-300100-
WESTERN UPPER MICHIGAN

CITY           SKY/WX    TMP DP  RH WIND       PRES   REMARKS
IRON MOUNTAIN  CLOUDY    70  52  52 N8        29.96R
6HR MIN TEMP:  70; 6HR MAX TEMP:  75;

HOUGHTON       MOSUNNY   61  52  72 NW12      29.99R
6HR MIN TEMP:  61; 6HR MAX TEMP:  66;

COPPER HARBOR    N/A     63  55  75 N13       29.97R
6HR MIN TEMP:  61; 6HR MAX TEMP:  65;

$$

ABBREVIATIONS USED IN REMARKS
   TC - TEMPERATURE IN CELSIUS
  WCI - WIND CHILL INDEX
   HX - HEAT INDEX
  VSB - VISIBILITY



USA.gov is the U.S. government's official web portal to all federal, state and local government web resources and services.